Powrót do katalogu

STARLINK-36631

AktywnyŁącznośćSSO
NORAD 67602·PAYLOAD·🇺🇸 United States

Wystrzelony Jan 29, 2026 z Vandenberg Space Force Base

Loading…

Następne Przeloty (najbliższe 24 godziny)

TLE

ŚwieżeSource: CelesTrak SupGP

Epoka: Sep 14, 2026, 22:29 UTC

1 67602C 26018P   26257.93729167  .00000654  00000+0  20299-4 0  2571
2 67602  97.2846 321.5339 0000881  87.0395 198.1913 15.33436076    15

Śledź STARLINK-36631 w czasie rzeczywistym z AllMySat

Download on the App Store